Temp_Advection
nan nan nan nan nan nan nan nan nan nan nan nan nan nan nan nan nan nan nan nan nan nan nan nan nan nan nan nan nan nan nan nan nan nan nan nan nan nan nan nan nan nan nan nan
nan -0 0 -0 -0 -0 0 -0 -0 -0 -0 -0 -0 -1 -0 -0 -0 -1 -1 -1 -1 0 1 1 1 1 0 0 0 1 1 1 1 1 0 -0 0 0 0 0 0 0 0 nan
nan 0 0 -0 0 -0 -0 -0 -0 -0 -0 -0 -0 -0 -0 -1 -0 -0 -1 -1 -0 -0 1 1 1 1 0 0 1 1 1 1 0 0 -0 0 1 1 0 0 0 0 0 nan
nan -1 -0 -0 0 1 -0 -0 -0 -0 -0 -0 -0 -0 0 -1 -0 -0 -0 -0 -0 0 1 1 1 1 0 1 0 0 0 0 0 -0 -0 1 1 1 0 0 0 -0 -0 nan
nan -0 -0 0 -0 0 0 0 -0 -0 -0 -0 -1 -0 -0 -0 -0 -0 -0 -0 0 0 1 1 1 1 1 1 0 0 0 0 -0 -0 0 1 1 1 -0 0 0 0 0 nan
nan -0 -0 -0 -0 0 0 0 -1 -0 -0 -0 -1 -1 -1 0 -0 -0 -0 0 1 2 2 2 1 1 1 0 0 0 0 0 0 0 1 1 0 0 0 0 -0 0 0 nan
nan -0 -0 0 -0 -1 -1 -0 -0 -0 -0 -0 -0 -1 -1 -0 -0 -0 -0 1 2 3 3 2 1 1 0 0 1 0 0 0 1 1 1 1 0 0 1 -0 0 1 1 nan
nan -0 -0 -1 -0 -1 -0 -0 -0 -0 -0 -0 -0 -0 -0 -0 -0 -0 0 2 1 2 1 2 2 1 0 0 0 0 0 0 0 0 1 0 0 0 -0 0 0 1 1 nan
nan -0 -0 -0 -0 -0 -0 -0 -0 -0 -0 -0 -0 -0 -1 -0 -0 -1 0 0 1 1 1 1 1 1 1 0 0 0 -0 0 0 0 0 0 0 0 0 0 0 0 1 nan
nan -0 -0 0 -0 -0 -0 -0 -0 -0 -0 -0 -0 -0 -1 -1 -0 -1 0 0 0 0 0 0 0 1 1 1 0 0 0 0 0 0 0 0 0 0 0 0 0 -0 -0 nan
nan 0 -1 -0 -0 -0 -0 -0 -0 -0 -0 -0 -0 -0 -0 -0 -0 -0 0 0 0 -0 -0 0 0 1 1 1 1 1 0 0 0 0 0 0 0 0 1 1 0 1 1 nan
nan -1 -0 -1 -1 -0 -0 -0 -0 -0 -0 -0 -0 -0 -0 -0 -0 0 0 -0 -0 -0 -0 0 0 0 0 0 0 1 1 1 0 0 0 0 0 1 1 1 1 2 1 nan
nan -0 -0 -1 -1 -0 0 -0 -0 -0 0 -0 0 -0 0 0 0 0 0 -0 -0 -0 -0 0 0 0 -0 -0 -0 0 1 1 1 1 1 1 1 1 0 0 0 0 1 nan
nan -0 -1 -0 0 -1 -0 -0 -0 -0 0 0 0 0 0 0 0 -0 -0 -0 0 0 0 0 -0 -0 -0 -0 0 0 0 1 1 1 2 1 1 1 1 0 0 -0 1 nan
nan 0 -0 -1 -0 0 -0 0 0 -0 0 0 -0 -0 0 -0 -0 0 0 0 0 0 -0 -0 -0 0 -0 0 0 0 0 1 1 1 1 1 1 1 2 1 1 0 -0 nan
nan 0 0 0 -0 -0 -0 -0 0 -0 -0 -0 -0 0 0 0 0 0 0 0 -0 -0 -0 0 0 0 0 0 0 0 1 1 1 1 1 1 1 1 1 2 2 2 1 nan
nan -0 -0 -0 -0 -0 -0 -0 -0 -0 -0 -0 -0 0 0 0 -0 -0 -0 -0 -0 0 0 0 0 0 0 0 0 0 0 1 1 1 1 1 1 1 1 1 1 1 1 nan
nan 0 0 -0 -0 -0 0 -0 -0 0 0 0 0 0 0 -0 -0 0 0 0 0 0 0 0 0 0 0 0 0 1 0 0 1 1 1 1 1 1 1 0 0 -0 0 nan
nan 0 0 0 0 0 0 0 0 0 -0 -0 -0 -0 0 0 0 0 0 0 -0 -0 0 0 0 0 0 0 0 0 0 0 0 0 0 1 1 1 1 0 0 0 0 nan
nan 0 -0 0 0 0 0 -0 0 -0 -0 -0 -0 0 0 0 0 -0 -0 -0 -0 0 1 0 0 0 0 0 0 0 0 0 0 0 0 0 0 0 0 0 0 0 0 nan
nan 0 -0 0 0 -0 -0 -0 0 -0 -0 0 0 -0 -0 0 0 0 -0 -0 0 1 0 0 0 0 0 0 0 0 0 0 0 0 0 0 0 0 0 0 0 0 0 nan
nan 0 -0 0 0 -0 -0 -0 -0 -0 0 0 0 0 -0 -0 -0 -0 0 1 1 1 0 0 0 0 0 0 0 0 0 0 0 0 0 0 0 0 0 0 0 0 0 nan
nan 0 -0 0 0 -0 0 -0 -0 -0 0 0 0 0 0 -0 0 1 0 0 1 1 0 -0 0 1 0 0 0 0 0 0 0 0 0 0 0 0 0 0 0 -0 0 nan
nan -0 0 -0 0 0 0 0 -0 -0 0 0 0 0 -0 0 0 0 0 1 1 0 -0 0 0 1 0 -0 -0 0 0 0 0 -0 0 0 0 0 0 0 0 0 0 nan
nan -0 0 0 0 0 0 0 0 0 0 0 0 0 0 0 0 0 0 0 0 0 0 0 0 0 0 0 0 -0 -0 0 0 0 0 -0 -0 0 0 0 0 0 0 nan
nan 0 0 0 0 0 0 0 0 0 0 0 0 0 0 0 0 0 0 0 0 0 0 0 0 0 0 0 0 0 0 0 0 0 0 0 0 0 0 0 0 0 0 nan
nan nan nan nan nan nan nan nan nan nan nan nan nan nan nan nan nan nan nan nan nan nan nan nan nan nan nan nan nan nan nan nan nan nan nan nan nan nan nan nan nan nan nan nan
Wind_Speed
20 17 5 13 19 18 16 13 10 22 19 21 28 27 27 35 41 36 35 35 28 18 14 16 20 26 31 35 36 33 36 37 38 36 33 34 33 31 30 29 32 37 37 38
15 3 7 1 18 18 15 11 11 18 17 23 35 39 32 38 39 35 36 33 29 17 11 13 17 25 29 34 32 34 36 35 37 35 34 32 31 30 28 27 29 35 42 39
5 15 4 2 14 17 16 9 17 20 22 25 26 26 29 38 36 36 38 37 31 17 10 8 14 19 27 29 30 30 31 36 34 32 33 33 31 30 29 29 29 32 39 40
9 15 1 6 13 15 15 7 20 23 22 23 27 40 19 40 37 36 39 37 28 16 9 7 11 17 24 28 30 31 32 32 31 31 32 33 31 29 29 30 29 32 33 36
6 10 3 3 17 21 15 3 22 26 27 36 43 33 13 48 48 44 41 35 26 16 10 10 16 17 25 26 29 30 30 31 28 29 31 32 30 28 27 28 27 28 29 31
9 5 5 10 23 35 17 4 30 31 25 29 41 19 16 51 45 41 36 31 26 20 15 14 14 21 23 25 22 23 25 25 25 28 28 29 27 26 25 25 26 26 26 26
10 4 3 16 27 29 8 11 34 34 33 33 16 22 37 39 38 35 35 34 32 31 26 18 12 13 18 21 23 22 23 23 24 24 27 27 26 26 27 27 26 28 26 26
7 5 5 30 12 9 12 25 27 27 29 29 31 32 32 33 34 37 40 39 37 36 30 24 18 14 16 17 19 19 19 20 21 22 23 23 23 25 26 28 27 27 28 29
4 6 19 20 10 17 21 27 28 30 28 26 27 28 32 33 36 38 39 36 34 33 29 26 21 16 15 14 14 12 13 17 17 17 19 21 23 25 27 28 28 28 29 29
8 4 17 20 13 22 25 27 29 31 29 26 26 28 30 32 35 36 36 35 32 30 29 27 22 18 14 15 17 13 12 13 15 16 17 18 20 20 23 27 27 28 29 30
11 6 23 2 28 27 30 27 28 28 26 27 26 25 25 27 30 31 30 30 29 27 25 24 20 17 13 10 14 16 15 14 15 16 17 18 20 20 23 25 27 28 27 27
4 19 10 26 27 29 27 28 28 27 26 22 22 23 23 24 25 24 26 26 25 24 21 20 18 15 10 7 5 10 17 20 19 19 18 20 20 22 22 22 24 25 27 28
9 19 22 25 23 19 26 28 25 22 22 23 24 22 21 20 21 20 21 21 23 22 20 17 15 14 11 9 3 5 12 19 23 22 20 21 22 23 24 18 15 15 14 23
14 13 12 9 19 24 22 21 20 19 19 20 21 21 19 18 19 19 20 19 19 19 18 17 15 13 12 10 7 2 8 13 18 22 24 24 24 24 24 23 22 18 13 11
3 12 17 18 18 17 16 17 17 19 20 20 19 18 18 18 18 18 17 15 15 16 17 16 15 15 12 9 8 6 8 12 14 17 18 19 22 25 25 23 25 22 21 17
14 12 10 11 13 15 16 16 17 19 19 19 19 18 17 16 15 15 16 17 18 18 18 16 15 14 11 9 9 11 12 14 17 20 18 18 20 21 24 26 29 30 29 28
12 11 12 11 13 14 14 13 13 14 15 15 15 14 15 16 17 17 16 16 16 16 15 16 15 12 10 9 9 12 13 14 15 18 21 23 24 26 28 31 33 34 34 34
7 8 9 10 11 11 11 11 11 12 14 13 13 14 16 18 20 19 18 16 16 16 16 16 13 12 11 11 13 13 15 17 19 22 23 23 25 28 31 32 33 34 34 31
5 5 6 7 7 9 10 11 12 12 11 11 13 16 16 16 18 21 22 22 22 21 18 14 13 14 14 12 13 17 19 22 24 25 26 27 29 30 31 31 32 31 29 27
3 4 5 6 7 8 8 9 9 10 10 10 11 15 20 20 19 20 23 26 23 19 15 14 14 15 15 14 15 18 20 22 23 24 25 27 29 29 29 28 28 27 25 24
2 3 4 5 6 7 8 8 9 10 10 10 12 15 17 21 22 22 24 26 25 21 19 19 19 18 18 17 18 20 21 22 24 25 26 27 27 27 27 26 24 23 22 19
2 2 3 4 5 6 7 7 7 7 8 11 11 12 14 17 20 21 22 23 22 23 24 24 22 21 22 23 25 25 25 26 27 27 27 27 27 26 25 23 22 19 18 18
2 1 1 2 3 5 6 8 8 8 9 11 13 13 16 16 15 17 19 20 20 21 21 23 21 24 25 27 27 27 27 27 27 26 26 24 23 22 21 19 19 18 18 18
2 1 0 0 1 2 2 5 8 9 11 13 14 13 13 15 16 17 17 17 17 20 22 21 20 20 22 24 25 25 25 25 24 23 22 20 19 18 17 17 17 16 16 15
3 3 2 1 1 2 2 3 4 5 7 9 10 12 13 12 15 15 14 16 17 18 20 20 19 20 21 22 22 22 23 21 20 19 19 18 18 18 17 16 15 14 14 13
5 5 4 4 4 3 3 3 3 3 3 5 7 8 9 10 12 12 13 14 15 16 18 19 19 19 20 20 21 21 21 20 19 19 17 17 16 15 14 13 12 11 10 9
7 6 5 4 4 4 4 4 3 3 2 2 3 5 7 8 10 11 12 14 15 15 16 17 17 18 18 18 19 19 18 18 17 16 16 15 14 12 11 10 8 7 6 6
Wind_Direction
317 299 146 46 18 351 354 21 360 327 329 345 339 339 340 351 357 1 5 7 11 27 66 157 160 166 169 171 177 184 179 182 200 203 198 202 200 199 203 209 208 205 198 201
307 294 291 146 12 355 354 10 347 346 345 340 334 340 345 359 356 356 1 2 5 23 65 109 144 163 165 174 181 189 192 188 193 200 198 201 203 202 200 209 206 204 200 202
295 331 292 145 6 344 339 17 7 6 333 331 337 340 343 354 355 358 355 356 3 17 38 106 135 159 171 175 183 188 189 188 192 204 203 202 206 206 203 208 207 205 200 203
303 320 74 135 22 342 337 47 10 349 341 335 334 331 339 1 356 354 355 358 4 17 45 132 146 149 164 179 182 180 181 186 197 200 202 205 205 207 205 209 206 204 205 207
321 314 112 219 353 345 343 336 13 345 337 340 341 335 3 356 357 356 355 2 7 16 47 103 167 152 163 172 179 182 184 187 201 203 202 203 205 207 207 207 205 209 208 209
325 308 354 11 340 333 313 262 3 342 337 337 341 355 342 343 347 351 0 4 15 38 66 94 135 172 165 168 186 191 195 199 199 198 203 207 207 207 207 206 207 204 206 209
343 328 99 3 349 331 29 325 332 335 332 330 331 330 321 335 344 352 1 14 34 51 61 75 103 147 165 167 175 189 194 193 196 200 202 207 204 204 205 204 203 205 202 204
332 342 351 5 354 23 326 322 326 331 323 322 330 330 336 342 345 355 7 23 33 45 53 64 91 130 153 161 168 180 193 192 194 199 200 199 199 199 204 206 204 204 207 205
313 315 329 342 7 342 338 330 331 326 330 336 335 338 343 347 356 1 13 20 29 35 45 54 69 98 137 146 157 168 181 182 186 192 194 195 196 201 203 205 207 204 204 205
318 64 330 320 347 348 343 337 333 335 339 344 344 346 348 353 357 1 12 18 22 29 34 40 49 63 91 146 160 168 178 177 180 185 184 191 194 203 212 203 201 204 200 199
270 281 332 293 335 338 335 339 340 342 345 347 349 352 353 354 359 1 11 17 22 25 29 33 36 48 64 104 158 174 176 180 180 183 187 190 195 204 206 206 208 205 206 208
299 332 311 303 317 327 333 337 341 342 343 350 354 353 355 357 5 7 12 16 21 24 27 29 35 39 48 72 136 183 193 193 186 182 188 192 193 195 200 210 213 215 212 208
275 301 302 298 311 328 334 336 343 345 349 349 359 359 2 3 9 11 18 23 26 24 25 28 35 40 42 41 35 187 198 196 190 188 195 196 195 195 190 192 205 214 222 218
292 301 310 325 319 330 333 339 348 352 3 5 4 5 8 13 17 20 21 24 28 29 33 35 37 43 46 50 58 109 189 198 197 191 190 191 191 189 189 183 178 165 167 191
312 302 292 308 322 330 345 351 357 4 7 9 13 12 14 15 18 22 24 30 34 39 40 42 43 47 48 52 68 103 159 168 175 178 181 185 183 177 174 172 166 165 145 149
321 322 326 326 335 347 354 0 3 3 6 8 10 15 21 21 22 25 28 34 36 39 40 43 49 49 51 69 89 109 131 145 158 162 163 172 172 170 167 162 155 152 151 151
324 336 339 340 348 354 357 359 2 0 2 10 14 16 28 35 37 36 37 40 41 43 48 46 50 57 69 86 107 116 122 128 140 146 152 157 155 157 154 152 149 148 146 148
320 325 330 330 336 350 0 6 7 7 12 15 21 26 34 42 40 39 43 50 52 51 51 52 54 64 79 99 114 124 129 133 137 140 143 143 146 150 149 146 144 142 146 153
343 349 353 351 1 7 10 15 17 16 18 28 37 40 44 48 51 48 48 51 51 48 46 53 65 76 82 96 116 124 130 135 135 136 138 140 143 144 144 145 146 147 150 153
356 7 2 6 18 20 23 21 20 26 29 37 45 51 50 51 53 54 54 51 48 48 53 62 74 80 87 100 115 121 125 127 128 129 134 137 138 139 141 142 142 142 143 149
354 19 13 26 32 33 36 32 33 36 33 41 49 53 55 55 51 55 57 55 53 56 65 73 77 85 91 100 107 112 116 120 123 126 130 130 131 132 133 135 136 137 139 143
310 3 22 32 39 39 37 35 35 42 48 54 57 60 60 62 61 51 53 53 57 60 64 69 77 85 94 99 101 104 108 111 114 117 118 121 124 126 128 131 134 137 140 143
285 309 49 46 51 54 51 52 54 59 66 70 69 69 67 65 69 64 62 62 68 72 71 71 75 83 90 95 98 101 103 106 109 112 115 118 120 123 126 131 135 136 137 141
251 266 276 77 76 65 90 79 72 73 73 72 69 68 70 73 68 73 72 73 76 82 81 79 83 90 96 97 99 100 101 103 106 109 112 115 119 123 127 130 134 137 140 143
233 242 226 190 171 175 144 124 98 85 77 74 72 71 71 71 78 76 77 83 86 86 86 87 88 90 92 95 98 101 103 104 106 111 114 117 118 122 124 127 130 134 139 143
219 221 212 203 198 183 167 161 160 126 90 76 73 71 70 75 79 82 84 87 89 92 94 94 90 90 92 93 95 97 97 99 103 106 108 111 113 117 120 123 128 133 139 147
218 214 207 196 186 181 177 173 167 149 138 128 108 96 86 85 86 87 87 89 91 91 92 93 94 93 94 94 95 96 97 99 99 100 103 105 107 109 111 114 120 127 138 150
Height
1473 1465 1466 1472 1475 1467 1462 1461 1455 1447 1434 1424 1415 1401 1390 1380 1367 1362 1355 1349 1344 1342 1343 1351 1356 1361 1368 1377 1388 1395 1402 1412 1422 1428 1436 1443 1449 1455 1462 1469 1476 1480 1488 1498
1471 1459 1460 1463 1473 1471 1462 1460 1457 1449 1435 1433 1420 1408 1395 1388 1378 1369 1363 1360 1354 1349 1350 1352 1357 1366 1371 1379 1385 1395 1403 1411 1421 1427 1433 1440 1447 1453 1460 1467 1472 1478 1486 1492
1461 1452 1450 1458 1479 1476 1467 1463 1460 1451 1449 1434 1421 1410 1401 1394 1389 1379 1370 1364 1359 1356 1356 1357 1361 1365 1373 1378 1386 1394 1400 1409 1416 1423 1429 1437 1444 1451 1457 1463 1470 1476 1483 1491
1467 1448 1444 1474 1476 1476 1471 1468 1463 1454 1449 1442 1427 1413 1406 1400 1393 1386 1379 1372 1367 1364 1362 1363 1365 1369 1372 1379 1386 1392 1400 1407 1415 1420 1428 1436 1442 1449 1455 1461 1467 1473 1479 1486
1474 1460 1460 1468 1473 1469 1470 1466 1464 1458 1443 1435 1424 1413 1404 1398 1392 1388 1381 1376 1372 1368 1365 1366 1369 1371 1376 1381 1386 1394 1401 1407 1413 1419 1427 1435 1439 1446 1453 1459 1464 1469 1476 1482
1476 1468 1458 1485 1478 1470 1463 1457 1465 1463 1453 1440 1426 1412 1412 1404 1402 1398 1390 1384 1377 1371 1367 1367 1370 1375 1380 1384 1390 1395 1400 1406 1413 1420 1426 1432 1437 1443 1451 1457 1462 1467 1473 1479
1480 1472 1474 1489 1483 1468 1469 1482 1474 1467 1459 1450 1443 1441 1429 1419 1411 1406 1392 1384 1375 1369 1367 1368 1373 1377 1382 1386 1391 1396 1402 1407 1412 1417 1423 1429 1434 1441 1447 1452 1459 1465 1470 1476
1489 1482 1481 1490 1487 1489 1497 1489 1482 1477 1466 1455 1449 1438 1430 1421 1412 1402 1392 1381 1376 1372 1373 1375 1377 1379 1383 1387 1391 1395 1399 1404 1410 1415 1420 1427 1433 1439 1445 1451 1457 1463 1468 1473
1511 1496 1498 1499 1501 1497 1494 1487 1478 1473 1468 1461 1452 1442 1432 1422 1414 1405 1398 1392 1388 1383 1382 1381 1382 1383 1386 1389 1393 1397 1402 1407 1411 1417 1422 1427 1433 1438 1443 1449 1455 1459 1465 1471
1514 1502 1501 1498 1499 1498 1493 1486 1478 1470 1464 1460 1452 1444 1435 1426 1418 1411 1405 1400 1396 1392 1389 1387 1387 1387 1389 1393 1396 1400 1404 1409 1413 1418 1421 1427 1433 1438 1443 1448 1453 1458 1463 1469
1510 1504 1501 1495 1497 1496 1490 1486 1480 1472 1464 1457 1451 1446 1441 1434 1426 1419 1414 1409 1404 1401 1398 1396 1394 1393 1393 1394 1398 1402 1406 1410 1414 1418 1423 1428 1432 1438 1443 1449 1454 1458 1462 1468
1506 1512 1511 1502 1496 1492 1488 1484 1478 1473 1467 1462 1456 1449 1443 1437 1432 1427 1421 1416 1411 1409 1406 1404 1402 1400 1400 1400 1402 1404 1407 1410 1414 1419 1423 1428 1433 1437 1444 1449 1453 1456 1461 1466
1515 1511 1508 1501 1497 1493 1486 1481 1476 1473 1467 1461 1455 1451 1447 1443 1438 1433 1429 1424 1419 1416 1413 1410 1408 1406 1405 1405 1405 1406 1409 1412 1414 1419 1423 1428 1433 1437 1441 1449 1454 1459 1462 1468
1511 1508 1503 1501 1497 1492 1489 1483 1478 1474 1469 1464 1459 1454 1450 1447 1443 1438 1434 1430 1426 1422 1418 1416 1413 1411 1410 1409 1410 1410 1411 1414 1416 1420 1424 1428 1433 1437 1441 1446 1450 1456 1463 1468
1509 1508 1504 1500 1497 1494 1490 1485 1481 1477 1472 1468 1464 1461 1456 1451 1447 1443 1440 1436 1432 1429 1425 1422 1419 1416 1415 1414 1413 1414 1415 1416 1419 1422 1426 1430 1434 1438 1442 1447 1451 1456 1462 1469
1507 1504 1502 1500 1497 1493 1490 1486 1482 1479 1474 1470 1467 1463 1459 1455 1451 1447 1443 1439 1435 1432 1430 1428 1425 1422 1420 1419 1418 1418 1420 1420 1421 1425 1428 1431 1436 1439 1445 1449 1453 1458 1463 1470
1506 1504 1501 1499 1497 1494 1492 1489 1486 1483 1480 1475 1471 1468 1463 1459 1454 1450 1446 1443 1440 1437 1434 1432 1430 1428 1426 1425 1424 1424 1423 1424 1426 1429 1434 1437 1440 1444 1447 1452 1457 1462 1467 1474
1507 1505 1503 1500 1497 1495 1494 1491 1489 1486 1481 1478 1475 1472 1467 1462 1459 1456 1451 1447 1444 1441 1438 1435 1434 1432 1431 1430 1430 1430 1430 1431 1433 1436 1439 1440 1443 1449 1452 1456 1462 1467 1473 1479
1507 1505 1503 1501 1499 1496 1494 1491 1489 1486 1484 1481 1478 1475 1471 1468 1464 1460 1456 1452 1447 1445 1443 1441 1439 1436 1435 1435 1435 1435 1437 1438 1440 1442 1444 1447 1451 1455 1459 1464 1469 1474 1480 1485
1507 1505 1503 1501 1499 1497 1495 1493 1491 1489 1487 1484 1481 1478 1474 1471 1467 1464 1461 1456 1454 1452 1449 1446 1444 1442 1441 1442 1442 1442 1443 1445 1446 1448 1451 1455 1458 1462 1467 1472 1476 1481 1486 1490
1507 1505 1504 1503 1501 1499 1498 1496 1494 1492 1490 1487 1483 1480 1478 1474 1472 1469 1465 1462 1460 1458 1455 1452 1450 1449 1448 1448 1448 1449 1450 1452 1454 1457 1460 1463 1467 1471 1475 1479 1483 1487 1491 1495
1506 1505 1504 1504 1502 1501 1500 1498 1496 1495 1493 1489 1487 1486 1483 1480 1478 1477 1473 1470 1468 1465 1462 1459 1458 1457 1456 1456 1456 1457 1458 1460 1462 1465 1468 1472 1475 1478 1482 1486 1489 1492 1496 1500
1505 1505 1504 1504 1504 1503 1502 1500 1499 1497 1496 1494 1492 1490 1488 1486 1485 1483 1480 1478 1476 1474 1471 1468 1468 1467 1466 1465 1465 1466 1467 1469 1471 1474 1477 1479 1482 1485 1489 1492 1495 1498 1501 1505
1505 1504 1504 1504 1504 1504 1504 1503 1502 1501 1500 1498 1496 1495 1493 1492 1491 1489 1487 1485 1483 1480 1478 1478 1477 1476 1475 1475 1475 1476 1477 1478 1480 1482 1485 1487 1489 1492 1494 1497 1500 1503 1506 1508
1504 1504 1504 1504 1505 1505 1505 1504 1504 1504 1503 1501 1500 1499 1498 1497 1495 1494 1492 1490 1489 1487 1485 1485 1485 1484 1484 1483 1484 1484 1485 1486 1488 1490 1491 1493 1495 1497 1500 1502 1505 1507 1510 1512
1504 1504 1504 1504 1504 1504 1504 1505 1505 1504 1504 1503 1503 1502 1502 1501 1499 1498 1496 1495 1494 1493 1492 1491 1491 1491 1491 1491 1491 1492 1492 1494 1495 1496 1498 1499 1501 1503 1505 1507 1509 1510 1512 1514
1502 1503 1503 1504 1504 1504 1504 1504 1505 1504 1504 1505 1505 1505 1504 1503 1502 1501 1500 1499 1498 1498 1497 1497 1497 1497 1498 1498 1498 1499 1499 1500 1501 1502 1503 1504 1506 1507 1509 1510 1511 1513 1514 1516